国际通讯卫星 4A-F2星 (INTELSAT 4A-F2)

导读 | 豆包AI

INTELSAT 4A-F2是国际通信卫星组织(ITSO)旗下的通信卫星,于1976年1月29日发射升空。它属于Intelsat 4A系列,由美国休斯空间与通信公司基于HS-353平台制造,发射质量约1515千克,设计寿命为7年,配置20路C频段转发器,主要为全球范围提供商业通信服务,是20世纪70年代国际卫星通信网络的重要组成部分,推动了跨洋通信的普及发展。

Basic Information
目录编号:
8620
目录名称:
INTELSAT 4A-F2
国际标识:
1976-010A
轨道中心:
EARTH
卫星名称:
国际通讯卫星 4A-F2星
卫星全名:
国际通讯卫星 4A-F2星 (INTELSAT 4A-F2)
卫星状态:
在轨 (已飞行18307 天)
发射日期:
1976-01-29 UTC
国别 :
(ITSO)
星等 :
--
Orbit Information
数据来源 国际轨道数据 AOE轨道数据
星历时间 2026-03-14T04:36:17+0800
8小时前
查看轨道信息
2026-03-14T08:00:00+0800
5小时前
查看轨道信息
半长轴 42328.253km 42328.224km
偏心率 0.0006681 0.0006492
轨道倾角 8.103° 8.103°
近地点辐角 316.430° 315.957°
升交点赤经 304.545° 304.543°
平近点角 235.589° 286.839°
近地点 35921.836km 35922.607km
远地点 35978.396km 35977.567km
周期 1444.459分钟 1444.458分钟
每日圈数 0.996913 0.996914
Detailed Information
卫星平台:
HS-353
平衡模式:
自旋稳定
覆盖范围:
全球
运营商:
国际卫星通信公司
运营商所在国:
美国
制造商(研发单位):
休斯公司
制造商所在国:
美国
使用方式:
暂无
Satellite Introduction
从1965年4月至1984年3月,国际通信卫星组织发射了5代、6种不同性能的卫星共计35颗,除6颗卫星因运载火箭和远地点发动机故障而发射失败外,其余29颗卫星均被送到了预定的静止轨道位置。1984年8月前后,国际通信卫星组织利用部署在大西洋、太平洋、印度洋上空的15颗国际通信卫星,为遍布世界各地170多个国家或地区提供电话、电传、电报、电视和数据传输等电信业务;该卫星已退役。
2D Orbit Map
3D Orbit Map
Orbit Altitude Analysis Chart
Orbit Inclination Analysis Chart
Orbit Comprehensive Analysis Chart
View Comprehensive Chart